Regional Weather Roundup
Issued by NWS

Home | Current Version | Previous Version | Text Only | Print | Product List | Glossary Off
Versions: 1 2 3 4 5 6 7 8 9 10 11 12 13 14 15 16 17 18 19 20 21 22 23 24 25 26 27

000
ASUS45 KSLC 231610
RWRUT

UTAH REGIONAL WEATHER ROUNDUP
NATIONAL WEATHER SERVICE SALT LAKE CITY UT
1000 AM MDT THU OCT 23 2014

UTZ001>011-023>025-231700-

NORTHERN UTAH

CITY           SKY/WX    TMP DP  RH WIND       PRES   REMARKS
BRIGHAM CITY   PTSUNNY   45  32  60 CALM      30.18R
HILL AFB       CLOUDY    54  28  37 E12       30.16S
LOGAN          SUNNY     40  33  76 W3        30.17S
OGDEN          PTSUNNY   53  29  39 S6        30.15S
PROVO AIRPORT  MOSUNNY   50  34  53 SE6       30.21R
SALT LAKE CITY PTSUNNY   56  31  38 SE5       30.14S
VERNAL         MOSUNNY   48  37  65 CALM      30.28R
WENDOVER       MOSUNNY   48  34  57 CALM      30.16S
HEBER CITY     SUNNY     39  32  75 CALM      30.25F
WEST JORDAN    SUNNY     57  36  44 S21       30.15F

$$

UTZ012>022-026-027-231700-

SOUTHERN/CENTRAL UTAH

CITY           SKY/WX    TMP DP  RH WIND       PRES   REMARKS
BLANDING       SUNNY     56  36  47 CALM      30.38S
BRYCE CANYON   SUNNY     48  28  46 SW5       30.37R
CEDAR CITY     SUNNY     56  31  38 CALM      30.25R
DELTA          MOSUNNY   53  32  44 SE3       30.20S
HANKSVILLE       N/A     52  34  50 CALM      30.27R
MILFORD        SUNNY     54  31  41 S12       30.21R
MOAB/CYNLANDS  SUNNY     57  37  47 SE6       30.24R
PRICE          SUNNY     53  32  44 S3        30.28R
ST GEORGE      SUNNY     55  30  38 CALM      30.21R
KANAB            N/A     54  32  43 N6        30.30R

$$

REGIONAL REPORTS     COLORADO/ARIZONA

CITY           SKY/WX    TMP DP  RH WIND       PRES   REMARKS
CRAIG, CO      SUNNY     45  38  76 CALM      30.29F
GRAND JUNCTION SUNNY     55  41  59 SE8       30.26F
RIFLE          SUNNY     45  38  76 CALM      30.31F
MONTROSE       SUNNY     51  37  58 CALM      30.33S
CORTEZ         SUNNY     54  36  50 VRB3      30.33R
PAGE, AZ       SUNNY     60  30  32 SE3       30.24R
GRAND CANYON   MOSUNNY   56  36  47 CALM      30.34R
KINGMAN        SUNNY     65  39  38 SW5       30.16R
FLAGSTAFF      SUNNY     58  37  45 CALM      30.37R

$$

REGIONAL REPORTS    NEVADA/IDAHO/WYOMING

CITY           SKY/WX    TMP DP  RH WIND       PRES   REMARKS
LAS VEGAS, NV  PTSUNNY   69  32  25 S6        30.07R
ELY            MOSUNNY   56  22  26 S16       30.21S
ELKO           PTSUNNY   48  21  34 CALM      30.15R
POCATELLO, ID  SUNNY     50  32  50 N9        30.11R
BURLEY         CLOUDY    50  34  54 SW8       30.10R
EVANSTON, WY   MOSUNNY   49  25  39 SW13      30.23S
ROCK SPRINGS   MOSUNNY   43  26  51 NE3       30.24R
KEMMERER       MOSUNNY   45  27  49 CALM      30.25R

$$



USA.gov is the U.S. government's official web portal to all federal, state and local government web resources and services.